Volver al catálogo

GREB

ActivoCienciaLEO
NORAD 731·PAYLOAD·🇺🇸 United States

Lanzado Jan 11, 1964 desde Vandenberg Space Force Base

Loading…

Próximos Pases (próximas 24 horas)

TLE

ActualizadoSource: Space-Track

Época: Sep 13, 2026, 21:31 UTC

1   731U 64001E   26256.89682709 -.00000021  00000-0  23875-4 0  9995
2   731  69.9044  76.4765 0016602 274.0536  85.8672 13.96320426189967

Sigue GREB en tiempo real con AllMySat

Download on the App Store